Miscellaneous Local Product
Issued by NWS Hastings, NE

Home | Current Version | Previous Version | Text Only | Print | Product List | Glossary On
Versions: 1 2 3 4 5 6 7 8 9 10 11 12 13 14 15 16 17 18 19 20 21 22 23 24 25 26 27 28 29 30 31 32 33 34 35 36 37 38 39 40 41 42 43 44 45 46 47 48 49 50
000
AXUS43 KGID 161002
MISGRI

GID CWA HOURLY WEATHER ROUNDUP
NATIONAL WEATHER SERVICE HASTINGS NE
500 AM CDT TUE SEP 16 2014

NOTE: "FAIR" INDICATES FEW OR NO CLOUDS BELOW 12,000 FEET WITH NO
SIGNIFICANT WEATHER AND/OR OBSTRUCTIONS TO VISIBILITY.

...SOUTH CENTRAL NEBRASKA...

CITY           SKY/WX    TMP DP  RH WIND       PRES   REMARKS
GRAND ISLAND   CLEAR     47  43  86 S9        30.24F
HASTINGS       CLEAR     47  41  80 S7        30.24F
KEARNEY        CLEAR     45  41  87 S9        30.23F
ORD            CLEAR     40  38  93 SE3       30.21F
YORK           CLEAR     45  41  87 S3        30.25F FOG
AURORA         CLEAR     44  42  91 S5        30.25S
LEXINGTON      CLEAR     46  44  90 S7        30.22F
HOLDREGE       CLEAR     45  42  89 S3        30.23S
HEBRON         CLEAR     40  38  93 CALM      30.25F

...NEBRASKA PANHANDLE...

CITY           SKY/WX    TMP DP  RH WIND       PRES   REMARKS
CHADRON        CLEAR     50  47  89 S7        30.06F
ALLIANCE       CLEAR     48  46  93 S7        30.09F
SCOTTSBLUFF    MOCLDY    52  50  93 E9        30.09F
SIDNEY         PTCLDY    52  49  89 S10       30.13F

...WESTERN AND NORTH CENTRAL NEBRASKA...

CITY           SKY/WX    TMP DP  RH WIND       PRES   REMARKS
VALENTINE      CLEAR     52  42  69 S10       30.12F
AINSWORTH      CLEAR     46  41  82 S13       30.15F
ONEILL         CLEAR     45  43  91 S10       30.19F
BROKEN BOW     CLEAR     45  41  86 S3        30.20F
IMPERIAL       PTCLDY    52  48  86 S10       30.17F
NORTH PLATTE   CLEAR     49  43  80 SE6       30.19F
MCCOOK         CLEAR     48  43  82 S7        30.22F

...EASTERN NEBRASKA...

CITY           SKY/WX    TMP DP  RH WIND       PRES   REMARKS
NORFOLK        CLEAR     41  38  89 S5        30.23F
SO SIOUX CITY  FOG       39  38  96 SE5       30.24F VSB 1/2
TEKAMAH        FOG       39  39 100 S5        30.25F VSB 1/2
ALBION         CLEAR     42  39  89 SE5       30.23F
OMAHA EPPLEY   FOG       44  42  93 CALM      30.27S VSB 3/4
MILLARD        FOG       44  43  97 CALM      30.26S VSB 1
LINCOLN        CLEAR     42  40  92 CALM      30.26F
NEBRASKA CITY  CLEAR     46  43  87 CALM      30.26F
BEATRICE       CLEAR     40  38  95 CALM      30.26F
FALLS CITY     CLEAR     42  41  96 CALM      30.26S

...NORTHERN KANSAS...

CITY           SKY/WX    TMP DP  RH WIND       PRES   REMARKS
GOODLAND       CLOUDY    57  54  89 S10       30.21F
HILL CITY      CLEAR     44  40  85 CALM      30.24F
NORTON         SUNNY     48  41  76 S6        30.23S
PHILLIPSBURG   CLEAR     45  45 100 CALM      30.24F
SMITH CENTER   CLEAR     43  41  93 E7        30.25S
BELOIT         CLEAR     43  43 100 CALM      30.24F
HAYS           CLEAR     48  43  81 E5        30.24F
RUSSELL        PTCLDY    47  45  93 E5        30.23S
CONCORDIA      CLEAR     44  44 100 SE3       30.25F
SALINA         CLEAR     52  47  83 E7        30.25S
TOPEKA         CLEAR     48  47  96 CALM      30.26S



USA.gov is the U.S. government's official web portal to all federal, state and local government web resources and services.